timestamp,surface_pressure_avg,surface_temp_avg,battery_voltage,lat,long
2020-04-23 00:09:01+00:00,379.7145,2.81,13.05,47.84626,-54.09684
2020-04-23 00:19:01+00:00,372.7812,2.83,12.73,47.84626,-54.09684
2020-04-23 00:29:01+00:00,371.6129,2.85,12.73,47.84626,-54.09684
2020-04-23 00:39:01+00:00,375.8596,2.86,12.73,47.84626,-54.09684
2020-04-23 00:49:01+00:00,371.6679,2.87,12.73,47.84626,-54.09684
2020-04-23 00:59:01+00:00,357.9312,2.87,12.73,47.84626,-54.09684
2020-04-23 01:09:01+00:00,355.6563,2.87,12.73,47.84626,-54.09684
2020-04-23 01:19:01+00:00,357.8563,2.88,12.65,47.84626,-54.09684
2020-04-23 01:29:01+00:00,346.0046,2.88,12.65,47.84626,-54.09684
2020-04-23 01:39:01+00:00,334.6496,2.88,12.65,47.84626,-54.09684
2020-04-23 01:49:01+00:00,328.4763,2.88,12.65,47.84626,-54.09684
2020-04-23 01:59:01+00:00,327.8779,2.89,12.65,47.84626,-54.09684
2020-04-23 02:09:01+00:00,314.923,2.89,12.65,47.84626,-54.09684
2020-04-23 02:19:01+00:00,304.4331,2.89,12.65,47.84626,-54.09684
2020-04-23 02:29:01+00:00,306.7297,2.89,12.65,47.84626,-54.09684
2020-04-23 02:39:01+00:00,302.053,2.89,12.65,47.84626,-54.09684
2020-04-23 02:49:01+00:00,285.6181,2.89,12.65,47.84626,-54.09684
2020-04-23 02:59:01+00:00,279.8864,2.9,12.65,47.84626,-54.09684
2020-04-23 03:09:01+00:00,283.4865,2.89,12.65,47.84626,-54.09684
2020-04-23 03:19:01+00:00,269.9748,2.89,12.65,47.84626,-54.09684
2020-04-23 03:29:01+00:00,257.0797,2.9,12.65,47.84626,-54.09684
2020-04-23 03:39:01+00:00,253.7064,2.89,12.65,47.84626,-54.09684
2020-04-23 03:49:01+00:00,246.3464,2.89,12.65,47.84626,-54.09684
2020-04-23 03:59:01+00:00,232.6898,2.9,12.65,47.84626,-54.09684
2020-04-23 04:09:01+00:00,228.0664,2.89,12.65,47.84626,-54.09684
2020-04-23 04:19:01+00:00,226.3548,2.89,12.65,47.84626,-54.09684
2020-04-23 04:29:01+00:00,216.1764,2.9,12.65,47.84626,-54.09684
2020-04-23 04:39:01+00:00,202.3814,2.9,12.65,47.84626,-54.09684
2020-04-23 04:49:01+00:00,201.7464,2.9,12.65,47.84626,-54.09684
2020-04-23 04:59:01+00:00,202.0797,2.89,12.65,47.84626,-54.09684
2020-04-23 05:09:01+00:00,195.0448,2.89,12.65,47.84626,-54.09684
2020-04-23 05:19:01+00:00,189.5548,2.9,12.65,47.84626,-54.09684
2020-04-23 05:29:01+00:00,190.8431,2.89,12.65,47.84626,-54.09684
2020-04-23 05:39:01+00:00,190.0564,2.88,12.65,47.84626,-54.09684
2020-04-23 05:49:01+00:00,185.1515,2.88,12.65,47.84626,-54.09684
2020-04-23 05:59:01+00:00,186.9032,2.89,12.65,47.84626,-54.09684
2020-04-23 06:09:01+00:00,192.2198,2.89,12.65,47.84626,-54.09684
2020-04-23 06:19:01+00:00,190.4514,2.9,12.65,47.84626,-54.09684
2020-04-23 06:29:01+00:00,193.3898,2.9,12.65,47.84626,-54.09684
2020-04-23 06:39:01+00:00,200.3998,2.9,12.65,47.84626,-54.09684
2020-04-23 06:49:01+00:00,204.7248,2.9,12.65,47.84626,-54.09684
2020-04-23 06:59:01+00:00,209.5031,2.9,12.65,47.84626,-54.09684
2020-04-23 07:09:01+00:00,215.2664,2.9,12.65,47.84626,-54.09684
2020-04-23 07:19:01+00:00,220.2231,2.9,12.57,47.84626,-54.09684
2020-04-23 07:29:01+00:00,226.5681,2.9,12.57,47.84626,-54.09684
2020-04-23 07:39:01+00:00,226.6331,2.9,12.57,47.84626,-54.09684
2020-04-23 07:49:01+00:00,227.5747,2.92,12.57,47.84626,-54.09684
2020-04-23 07:59:01+00:00,235.0664,3.0,12.57,47.84626,-54.09684
2020-04-23 08:09:01+00:00,238.4681,3.0,12.57,47.84626,-54.09684
2020-04-23 08:19:01+00:00,238.2398,3.04,12.57,47.84626,-54.09684
2020-04-23 08:29:01+00:00,243.6248,3.09,12.57,47.84626,-54.09684
2020-04-23 08:39:01+00:00,248.5481,3.1,12.57,47.84626,-54.09684
2020-04-23 08:49:01+00:00,246.3347,3.1,12.57,47.84626,-54.09684
2020-04-23 08:59:01+00:00,255.0431,3.1,12.57,47.84626,-54.09684
2020-04-23 09:09:01+00:00,265.9931,3.09,12.57,47.84626,-54.09684
2020-04-23 09:19:01+00:00,268.0447,3.07,12.73,47.84626,-54.09684
2020-04-23 09:29:01+00:00,264.4648,3.1,12.73,47.84626,-54.09684
2020-04-23 09:39:01+00:00,273.7313,3.0,12.73,47.84626,-54.09684
2020-04-23 09:49:01+00:00,278.8464,2.99,12.73,47.84626,-54.09684
2020-04-23 09:59:01+00:00,284.3514,3.0,12.73,47.84626,-54.09684
2020-04-23 10:09:01+00:00,288.3797,3.0,12.73,47.84626,-54.09684
2020-04-23 10:19:01+00:00,300.3963,2.96,13.92,47.84626,-54.09684
2020-04-23 10:29:01+00:00,299.9347,2.96,13.92,47.84626,-54.09684
2020-04-23 10:39:01+00:00,305.5347,3.0,13.92,47.84626,-54.09684
2020-04-23 10:49:01+00:00,314.9097,2.99,13.92,47.84626,-54.09684
2020-04-23 10:59:01+00:00,320.9464,2.97,13.92,47.84626,-54.09684
2020-04-23 11:09:01+00:00,321.4896,2.98,13.92,47.84626,-54.09684
2020-04-23 11:19:01+00:00,326.8496,2.99,14.56,47.84626,-54.09684
2020-04-23 11:29:01+00:00,335.2147,2.99,14.56,47.84626,-54.09684
2020-04-23 11:39:01+00:00,335.473,2.98,14.56,47.84626,-54.09684
2020-04-23 11:49:01+00:00,332.1964,2.97,14.56,47.84626,-54.09684
2020-04-23 11:59:01+00:00,334.228,2.98,14.56,47.84626,-54.09684
2020-04-23 12:09:01+00:00,336.708,2.96,14.56,47.84626,-54.09684
2020-04-23 12:19:01+00:00,336.5879,2.94,14.32,47.84626,-54.09684
2020-04-23 12:29:01+00:00,335.8413,2.96,14.32,47.84626,-54.09684
2020-04-23 12:39:01+00:00,336.168,2.97,14.32,47.84626,-54.09684
2020-04-23 12:49:01+00:00,330.2046,2.98,14.32,47.84626,-54.09684
2020-04-23 12:59:01+00:00,324.6496,3.0,14.32,47.84626,-54.09684
2020-04-23 13:09:01+00:00,325.5179,3.0,14.32,47.84626,-54.09684
2020-04-23 13:19:01+00:00,324.7413,3.0,14.16,47.84626,-54.09684
2020-04-23 13:29:01+00:00,320.5063,3.0,14.16,47.84626,-54.09684
2020-04-23 13:39:01+00:00,318.9464,2.99,14.16,47.84626,-54.09684
2020-04-23 13:49:01+00:00,314.323,2.99,14.16,47.84626,-54.09684
2020-04-23 13:59:01+00:00,304.0563,3.0,14.16,47.84626,-54.09684
2020-04-23 14:09:01+00:00,296.6063,3.0,14.16,47.84626,-54.09684
2020-04-23 14:19:01+00:00,294.428,3.0,14.08,47.84626,-54.09684
2020-04-23 14:29:01+00:00,287.6164,2.99,14.08,47.84626,-54.09684
2020-04-23 14:39:01+00:00,278.0881,2.99,14.08,47.84626,-54.09684
2020-04-23 14:49:01+00:00,275.5547,3.0,14.08,47.84626,-54.09684
2020-04-23 14:59:01+00:00,269.1864,3.0,14.08,47.84626,-54.09684
2020-04-23 15:09:01+00:00,259.1547,3.0,14.08,47.84626,-54.09684
2020-04-23 15:19:01+00:00,252.2498,3.0,14.16,47.84626,-54.09684
2020-04-23 15:29:01+00:00,253.5464,3.0,14.16,47.84626,-54.09684
2020-04-23 15:39:01+00:00,248.0864,3.0,14.16,47.84626,-54.09684
2020-04-23 15:49:01+00:00,234.6014,3.0,14.16,47.84626,-54.09684
2020-04-23 15:59:01+00:00,228.6831,3.05,14.16,47.84626,-54.09684
2020-04-23 16:09:01+00:00,226.2231,3.06,14.16,47.84626,-54.09684
2020-04-23 16:19:01+00:00,216.1115,3.1,14.24,47.84626,-54.09684
2020-04-23 16:29:01+00:00,206.9465,3.1,14.24,47.84626,-54.09684
2020-04-23 16:39:01+00:00,204.2998,3.1,14.24,47.84626,-54.09684
2020-04-23 16:49:01+00:00,202.4547,3.1,14.24,47.84626,-54.09684
2020-04-23 16:59:01+00:00,199.2148,3.1,14.24,47.84626,-54.09684
2020-04-23 17:09:01+00:00,194.9348,3.2,14.24,47.84626,-54.09684
2020-04-23 17:19:01+00:00,189.2731,3.27,14.32,47.84626,-54.09684
2020-04-23 17:29:01+00:00,186.4665,3.3,14.32,47.84626,-54.09684
2020-04-23 17:39:01+00:00,184.1298,3.38,14.32,47.84626,-54.09684
2020-04-23 17:49:01+00:00,181.1881,3.39,14.32,47.84626,-54.09684
2020-04-23 17:59:01+00:00,179.5898,3.39,14.32,47.84626,-54.09684
2020-04-23 18:09:01+00:00,180.1631,3.4,14.32,47.84626,-54.09684
2020-04-23 18:19:01+00:00,181.4515,3.4,14.16,47.84626,-54.09684
2020-04-23 18:29:01+00:00,182.1082,3.4,14.16,47.84626,-54.09684
2020-04-23 18:39:01+00:00,183.6982,3.4,14.16,47.84626,-54.09684
2020-04-23 18:49:01+00:00,188.6698,3.4,14.16,47.84626,-54.09684
2020-04-23 18:59:01+00:00,195.7515,3.4,14.16,47.84626,-54.09684
2020-04-23 19:09:01+00:00,199.2448,3.4,14.16,47.84626,-54.09684
2020-04-23 19:19:01+00:00,203.2415,3.4,14.08,47.84626,-54.09684
2020-04-23 19:29:01+00:00,208.9614,3.4,14.08,47.84626,-54.09684
2020-04-23 19:39:01+00:00,218.2248,3.4,14.08,47.84626,-54.09684
2020-04-23 19:49:01+00:00,223.6581,3.4,14.08,47.84626,-54.09684
2020-04-23 19:59:01+00:00,223.4747,3.4,14.08,47.84626,-54.09684
2020-04-23 20:09:01+00:00,231.3714,3.4,14.08,47.84626,-54.09684
2020-04-23 20:19:01+00:00,243.7014,3.4,14.08,47.84626,-54.09684
2020-04-23 20:29:01+00:00,246.0681,3.4,14.08,47.84626,-54.09684
2020-04-23 20:39:01+00:00,245.8881,3.4,14.08,47.84626,-54.09684
2020-04-23 20:49:01+00:00,256.2614,3.4,14.08,47.84626,-54.09684
2020-04-23 20:59:01+00:00,263.4164,3.37,14.08,47.84626,-54.09684
2020-04-23 21:09:01+00:00,262.6764,3.33,14.08,47.84626,-54.09684
2020-04-23 21:19:01+00:00,265.2697,3.37,14.0,47.84626,-54.09684
2020-04-23 21:29:01+00:00,278.8214,3.38,14.0,47.84626,-54.09684
2020-04-23 21:39:01+00:00,286.658,3.33,14.0,47.84626,-54.09684
2020-04-23 21:49:01+00:00,289.443,3.33,14.0,47.84626,-54.09684
2020-04-23 21:59:01+00:00,293.273,3.32,14.0,47.84626,-54.09684
2020-04-23 22:09:01+00:00,305.8247,3.34,14.0,47.84626,-54.09684
2020-04-23 22:19:01+00:00,314.563,3.39,13.68,47.84626,-54.09684
2020-04-23 22:29:01+00:00,320.2197,3.4,13.68,47.84626,-54.09684
2020-04-23 22:39:01+00:00,326.2163,3.4,13.68,47.84626,-54.09684
2020-04-23 22:49:01+00:00,335.4613,3.4,13.68,47.84626,-54.09684
2020-04-23 22:59:01+00:00,343.1946,3.39,13.68,47.84626,-54.09684
2020-04-23 23:09:01+00:00,347.37300000000016,3.39,13.68,47.84626,-54.09684
2020-04-23 23:19:01+00:00,351.0829,3.4,13.29,47.84626,-54.09684
2020-04-23 23:29:01+00:00,359.9946,3.39,13.29,47.84626,-54.09684
2020-04-23 23:39:01+00:00,366.318,3.4,13.29,47.84626,-54.09684
2020-04-23 23:49:01+00:00,368.1746,3.4,13.29,47.84626,-54.09684
2020-04-23 23:59:01+00:00,369.6246,3.36,13.29,47.84626,-54.09684
